Preview of NWS' New Version of Forecast
This preview is not operational and should not be used for support decisions.

Regional Weather Roundup (RWR)

Issued by National Weather Service (NWS)

                            
000
ASCA42 TJSJ 201510
RWRPR 
PUERTO RICO/U.S. VIRGIN ISLANDS HOURLY WEATHER ROUNDUP
NATIONAL WEATHER SERVICE SAN JUAN PR
1100 AM AST TUE AUG 20 2019

PRZ001>002-007>008-010-201600-
PUERTO RICO
  
CITY           SKY/WX    TMP DP  RH WIND       PRES   REMARKS
SAN JUAN LMM   MOSUNNY   88  79  74 E17       30.08S HX 102           
AGUADILLA      SUNNY     88  79  74 E14       30.09S HX 102           
CEIBA          PTSUNNY   88  79  74 SE12      30.10S HX 102           
$$

VIZ001>002-201600-
U.S. VIRGIN ISLANDS
  
CITY           SKY/WX    TMP DP  RH WIND       PRES   REMARKS
CHARLOTTE AMA  MOSUNNY   86  75  70 SE13      30.07S HX  95           
CHRISTIANSTED  MOSUNNY   88  75  66 E15       30.08S HX  97           
$$

HOURLY WEATHER ROUNDUP FOR THE NEWS MEDIA
  
CITY           SKY/WX    TMP DP  RH WIND       PRES   REMARKS
ORLANDO        FAIR      88  72  58 SE12      30.13R HX  94           
NEW YORK       FAIR      84  66  54 E5        30.11S                  
NEWARK         FAIR      84  65  52 CALM      30.10S                  
CHICAGO        CLOUDY    76  72  87 S6        29.98F                  
HARTFORD       FAIR      82  63  52 VRB6      30.07S                  
BOSTON         FAIR      82  59  45 VRB3      30.07F                  
DALLAS         MOSUNNY   89  70  53 SW5       30.02S HX  94           
PHILADELPHIA   PTSUNNY   86  69  56 E6        30.10S HX  90           
LOS ANGELES    MOSUNNY   70  63  78 CALM      29.95R                  
WASHINGTON DC  FAIR      88  72  58 NE6       30.11R HX  94